sat.trackr.live / text

‹ back to catalog

KUIPER-00012

NORAD 63728 · 2025-088E

PAYLOAD ACTIVE UNKNOWN

§ Identity

Operator
Country
US
Launch date
2025-04-28
Launch site
AFETR
Launch vehicle
Mass (kg)
RCS (m²)

External: N2YO · Heavens-Above · Gunter

§ Orbital elements

Epoch: 2026-05-25T03:49:42.801888Z

Period
97.30 min
Inclination
51.9016°
Eccentricity
0.0000656
Mean motion
14.79934764 rev/d
Perigee alt
629.1 km
Apogee alt
630.0 km
Semi-major
7,007.7 km
B*
2.3900e-4
RAAN
97.4381°
Arg perigee
99.8383°
Mean anomaly
260.2654°
Rev number
5,924

§ Raw data

KUIPER-000121 63728U 25088E   26145.15952317  .00001601  00000+0  23900-3 0  99942 63728  51.9016  97.4381 0000656  99.8383 260.2654 14.79934764 59248

JSON: /api/v1/satellites/63728 · /tle

For live sub-satellite position, see the globe view (requires WebGL).

§ Visibility from observer

Set your observer location to see the next 7 days of passes ≥ 10°. The values pass through the URL so the page stays shareable.

No JS? Fill the form by hand. The geolocation button needs JavaScript.